Location: Basse Occidentale du Courleau
(48.3833°N, 4.8333°W)
Time: 04:37:40
(UTC+00:00)

BREEZE-M DEB (TANK) - Pass Details

Date: 05 July 2020
Orbit: 279 x 14213 km, 49.5° (Epoch: 11 August)

Event Time Altitude Azimuth Distance (km) Brightness Sun altitude
Rises 21:07:29 0° 273° (W) 2,425 6.9 -6.5°
Reaches altitude 10° 21:08:48 10° 275° (W) 1,816 6.3 -6.6°
Maximum altitude 21:12:25 81° 2° (N) 966 4.1 -7.0°
Drops below altitude 10° 21:25:26 10° 92° (E) 6,113 7.7 -8.5°
Sets 21:34:30 0° 95° (E) 9,343 8.6 -9.5°
